Home   Weather   Bendigo   Past weeks

Flag for Australia Past Weather in Bendigo, Victoria, Australia — Yesterday and Last 2 Weeks

Now
48 °F

Fog.


Feels Like: 42 °F
Forecast: 46 / 55 °F
Wind: 17 mph from Northeast

Location: Bendigo Airport Aws

Current Time: Sep 29, 2016 at 4:56:57 PM

Latest Report: Sep 29, 2016 at 3:00 PM


Visibility: 4 mi

Pressure: 29.18 "Hg

Humidity: 88%

Dew Point: 45 °F

Location of BendigoLocation

Past Weather in Bendigo — Graph

°F

Bendigo Temperature Yesterday

Maximum temperature yesterday: 60 °F (at 2:00 PM)
Minimum temperature yesterday: 37 °F (at 6:00 AM)
Average temperature yesterday: 50 °F

High & Low Weather Summary for the Past Weeks

 TemperatureHumidityPressure
High64 °F (Sep 17, 2:00 PM)98% (Sep 16, 3:00 AM)30.11 "Hg (Sep 16, 3:00 AM)
Low37 °F (Sep 28, 6:00 AM)48% (Sep 20, 2:00 PM)29.18 "Hg (Sep 29, 2:00 PM)
Average51 °F78%29.86 "Hg
* Reported Sep 14 3:00 PM — Sep 29 3:00 PM, Bendigo, Weather by CustomWeather, © 2016

Note: Actual official high and low records may vary slightly from our data, if they occured in-between our weather recording intervals... More about our weather records

Advertising

Bendigo Weather History for the Previous 24 Hours

Scroll right to see more
 ConditionsComfort  
Time TempWeatherWind HumidityBarometerVisibility
3:00 PM
Thu, Sep 29
48 °FFog.17 mph88%29.18 "Hg4 mi
2:00 PM57 °FRefreshingly cool.22 mph54%29.18 "HgN/A
12:00 PM54 °FOvercast.17 mph55%29.23 "HgN/A
11:00 AM53 °FCool.13 mph64%29.26 "HgN/A
9:00 AM49 °FOvercast.13 mph78%29.26 "HgN/A
8:00 AM48 °FCool.14 mph86%29.26 "HgN/A
6:00 AM49 °FOvercast.10 mph88%29.21 "HgN/A
5:00 AM50 °FCool.12 mph86%29.21 "HgN/A
3:00 AM53 °FFog.18 mph96%29.21 "Hg6 mi
2:00 AM53 °FCool.17 mph96%29.26 "HgN/A
12:00 AM52 °FOvercast.15 mph90%29.35 "Hg4 mi
11:00 PM
Wed, Sep 28
52 °FCool.17 mph91%29.35 "HgN/A
9:00 PM54 °FFog.15 mph80%29.47 "HgN/A
8:00 PM55 °FCool.13 mph71%29.50 "HgN/A
6:00 PM57 °FLow clouds.15 mph64%29.57 "HgN/A
5:00 PM60 °FRefreshingly cool.20 mph57%29.60 "HgN/A
Weather by CustomWeather, © 2016

See weather overviewHow to use our weather pages